GFSNE_con_3kmhel_228.txt.gz
Helicity
356 367 417 420 464 507 477 455 429 384 315 346 396 392 452 462 454 468 423 370 387 438 469 487 398 319 288 303 312 328 250 147 120 88 94 106 100 102
377 348 345 391 401 485 505 491 400 371 340 309 349 426 395 448 451 511 481 471 473 520 556 564 557 401 413 454 442 444 416 353 138 128 104 111 105 96
366 376 386 370 400 420 437 452 409 401 342 318 287 353 413 447 462 487 457 504 569 589 645 570 609 548 591 494 498 393 464 456 210 139 131 125 92 107
389 374 368 451 452 453 479 449 439 424 405 290 386 454 448 500 497 530 518 486 631 588 718 704 629 613 639 598 523 502 478 456 422 283 142 160 151 126
410 407 436 429 428 507 502 461 482 422 430 402 438 501 477 510 578 496 525 608 635 603 731 710 677 718 649 587 539 492 502 459 466 359 239 210 189 165
357 394 388 395 430 485 496 472 501 486 462 465 437 540 553 620 544 546 618 649 707 758 632 595 668 681 640 584 539 542 578 520 553 465 328 249 230 267
311 330 337 340 333 357 438 420 375 406 461 421 407 564 626 667 579 662 605 596 608 730 617 627 659 616 597 605 598 638 723 577 517 475 365 280 327 351
330 300 284 266 242 339 383 347 376 392 390 376 422 593 595 646 640 670 703 757 637 693 678 626 661 670 658 655 682 725 758 693 589 535 496 365 393 247
264 282 300 283 262 198 242 319 336 329 318 453 462 484 615 605 642 534 652 673 605 626 647 652 654 613 677 716 759 836 795 786 595 557 529 496 429 235
181 208 305 246 252 329 231 256 278 291 360 387 376 423 484 552 520 538 560 658 687 561 573 691 717 763 748 733 737 842 813 752 561 450 445 438 367 269
151 152 192 296 285 258 242 315 238 303 315 329 411 377 482 488 531 602 561 540 555 622 631 614 682 689 716 727 646 706 804 780 525 399 346 377 339 256
123 133 144 188 242 283 296 314 274 301 312 332 423 460 503 455 462 414 587 456 577 620 597 679 659 657 639 605 660 609 681 615 406 305 290 317 290 322
168 123 121 133 138 202 218 274 255 300 325 341 440 482 463 428 427 431 425 441 575 547 434 678 602 621 625 515 563 537 587 499 415 350 278 275 326 371
165 115 131 144 134 165 236 293 299 356 374 396 396 425 483 457 412 471 421 467 454 354 293 455 497 573 610 580 513 372 383 414 416 377 349 295 263 270
128 119 149 188 267 243 249 296 344 327 339 343 335 369 414 489 552 537 546 529 489 343 250 375 390 388 510 566 520 348 401 336 332 313 311 283 258 250
201 215 210 250 298 314 338 368 318 302 292 313 361 414 420 424 466 491 502 527 538 502 302 325 328 329 413 374 364 310 265 284 267 253 231 202 202 208
219 271 293 298 283 312 342 324 322 317 325 330 341 372 405 423 428 439 454 452 428 369 306 247 229 240 232 233 189 175 209 204 156 243 246 208 188 177
282 309 314 293 293 267 261 290 320 316 293 286 288 300 322 344 383 364 326 301 278 235 186 151 148 159 130 81 106 146 150 173 196 207 244 212 187 171
273 307 314 303 293 288 289 285 297 299 287 284 286 293 292 273 267 245 191 168 140 118 109 117 114 81 74 76 80 67 147 166 194 180 179 161 142 179
236 255 257 243 238 229 228 224 212 186 176 171 165 143 122 122 99 59 31 42 43 57 79 117 136 144 125 134 162 116 69 152 160 143 150 153 173 150
238 216 205 193 176 152 101 84 70 60 40 32 22 17 19 37 41 42 61 92 122 130 122 106 112 153 180 182 148 121 94 101 148 183 206 208 216 221
179 142 122 118 85 57 57 37 23 3 5 36 65 80 75 82 91 94 97 112 109 122 134 155 151 172 184 174 156 152 147 122 106 125 156 218 209 184
136 152 115 42 -17 -15 14 15 39 51 48 55 62 70 77 97 111 122 136 138 138 149 166 166 172 184 183 179 174 166 163 153 150 175 172 174 216 177

GFSNE_con_3kmhel_231.txt.gz
Helicity
304 323 335 326 351 350 359 345 302 197 173 204 251 206 298 308 314 322 279 248 296 306 318 360 360 336 312 238 206 234 283 309 351 302 298 334 164 105
381 335 343 340 334 341 379 355 371 232 173 131 203 276 226 281 306 347 337 337 314 356 341 367 446 439 389 304 273 364 354 289 288 361 343 331 239 129
391 389 392 374 429 426 428 397 399 345 281 191 194 193 233 214 241 298 320 355 392 364 395 458 466 470 491 462 349 329 316 293 354 372 362 305 271 160
373 400 371 450 409 484 505 428 415 361 369 249 282 350 329 296 288 316 324 342 376 330 402 471 532 563 600 511 466 443 403 391 366 359 371 346 287 268
336 366 387 397 390 432 486 457 440 406 394 414 335 389 375 365 366 355 334 338 361 370 358 417 517 558 661 558 554 467 442 434 404 392 391 366 396 406
303 297 331 350 375 404 459 475 476 463 400 414 374 485 481 486 438 403 406 415 420 452 356 384 431 513 557 607 567 499 479 444 464 466 472 455 405 447
301 278 264 287 307 327 425 408 412 422 436 458 447 455 587 630 498 555 442 435 440 535 456 394 404 428 487 626 561 548 549 540 541 554 529 468 477 517
231 273 265 249 228 329 358 326 371 386 417 424 428 393 474 496 567 536 498 607 514 490 462 424 449 445 498 521 494 530 593 579 609 620 569 509 501 481
212 217 212 248 302 215 246 173 233 199 309 393 353 393 453 483 556 617 543 530 431 465 407 467 491 392 456 475 489 580 669 673 676 675 633 581 511 501
195 194 198 242 288 257 245 234 153 216 278 251 369 269 349 418 471 396 466 418 509 461 403 382 469 452 479 479 464 557 650 681 721 709 692 625 499 478
197 198 230 197 230 278 281 239 222 242 257 227 309 334 364 471 487 573 490 437 399 394 489 504 460 474 492 522 407 410 527 601 678 712 725 626 466 428
205 203 190 174 175 200 228 233 239 239 276 314 282 246 329 427 522 406 464 421 460 441 394 519 457 432 397 431 452 396 417 493 578 645 672 561 390 367
166 186 177 158 141 136 160 218 289 323 309 328 323 349 373 379 416 405 441 456 413 378 278 516 459 508 482 359 457 416 409 459 466 549 534 444 320 309
117 183 199 181 129 98 112 170 233 359 330 313 288 330 375 376 371 444 391 415 430 312 259 399 352 459 476 441 443 425 481 455 465 503 520 341 236 324
95 101 121 212 196 171 149 189 278 307 322 330 331 347 376 397 458 517 484 470 404 286 273 353 361 397 423 454 429 433 511 439 429 467 412 318 324 356
118 128 150 184 217 252 294 339 330 293 298 303 325 367 385 365 392 400 437 487 504 458 428 344 325 353 448 428 421 388 371 381 335 321 308 306 290 268
165 178 180 212 228 245 242 292 332 324 336 314 294 310 337 353 355 396 413 437 442 413 398 416 414 360 337 349 366 283 301 302 223 298 316 251 224 226
187 190 194 191 219 260 280 273 279 277 294 313 317 317 320 316 346 366 377 390 414 426 411 360 331 347 300 232 197 204 191 179 161 185 210 201 180 188
210 209 195 202 232 259 272 280 289 274 278 291 336 360 361 347 367 373 378 374 344 310 269 264 207 187 156 102 54 55 103 125 154 135 153 158 161 165
172 200 211 220 234 260 259 269 268 271 289 271 282 288 293 308 308 287 248 236 215 190 154 104 73 63 60 70 77 85 78 146 133 145 138 178 168 130
186 217 237 247 246 247 253 254 267 261 248 242 223 204 183 164 126 75 55 41 43 34 39 28 44 101 113 146 134 127 126 103 150 188 197 204 197 165
220 224 210 241 230 227 228 206 193 176 122 75 24 5 4 8 31 42 45 54 62 76 92 125 139 147 146 125 162 162 166 135 99 109 148 196 156 128
210 201 228 229 217 165 100 44 45 28 25 18 30 43 57 66 78 90 95 97 111 126 142 153 164 170 166 161 172 180 162 151 149 157 155 146 137 149

GFSNE_con_3kmhel_234.txt.gz
Helicity
296 296 286 293 316 350 357 351 264 178 145 146 170 131 192 266 305 307 262 232 228 228 242 243 256 290 264 257 164 134 123 121 145 167 175 143 141 157
316 319 296 271 268 302 342 302 276 190 140 178 182 241 190 212 215 268 279 287 276 268 270 271 290 312 339 315 287 205 208 171 155 172 175 176 168 173
316 294 275 298 353 346 352 309 294 258 206 174 227 229 224 198 203 226 224 253 254 273 285 317 336 377 406 410 354 297 292 231 233 175 219 212 185 186
299 305 280 310 316 346 351 323 335 303 316 173 295 317 278 259 259 257 258 241 253 237 269 286 330 392 452 476 436 421 313 320 268 228 252 253 211 203
280 320 301 304 320 380 422 374 364 340 358 299 243 348 334 303 297 270 272 279 266 234 257 284 284 343 458 526 495 496 410 358 319 336 290 276 241 237
173 243 341 200 267 376 395 346 356 343 358 362 278 375 390 370 394 365 344 332 299 292 300 307 259 279 411 487 515 557 443 375 397 386 351 319 273 267
266 292 238 222 366 352 351 357 365 374 423 361 278 328 421 440 387 423 362 340 293 333 295 265 315 313 362 333 413 484 432 452 421 413 400 369 364 343
167 180 142 183 244 266 311 310 352 347 307 357 346 336 291 315 374 332 415 422 337 385 327 341 348 353 326 326 254 332 521 521 511 450 456 461 442 417
242 180 169 221 225 260 242 256 242 301 290 283 320 331 299 414 373 405 425 394 299 376 302 351 395 307 271 325 308 331 429 529 533 515 528 529 517 479
181 192 229 201 195 220 217 203 178 214 238 282 313 384 298 348 312 307 421 383 452 401 396 324 330 361 437 367 259 299 405 487 508 594 596 603 605 523
147 144 160 161 193 119 190 192 216 223 227 257 243 276 305 349 357 519 502 462 409 432 431 350 311 360 340 317 300 225 306 380 421 542 622 648 641 568
152 144 145 162 192 181 141 203 205 227 269 285 247 213 225 275 418 372 474 408 480 391 325 385 357 329 210 208 239 267 216 293 373 470 568 617 640 587
155 171 171 161 172 187 140 164 198 234 203 231 217 256 290 316 315 282 404 368 472 363 226 455 396 372 307 168 236 262 279 302 303 403 497 580 602 638
125 114 109 124 166 202 155 115 133 177 241 263 285 282 315 264 268 338 369 389 383 269 264 328 317 351 401 370 280 253 314 328 342 423 411 428 554 606
117 116 103 93 92 128 173 124 119 209 247 279 244 264 251 292 394 444 461 417 425 346 214 279 342 433 410 376 295 281 424 364 408 431 463 450 480 577
82 88 121 150 125 114 143 166 202 230 238 241 233 261 310 333 330 349 382 435 444 368 379 357 331 361 376 373 367 289 307 316 405 421 450 460 483 495
131 143 133 158 177 176 179 182 203 233 265 320 317 313 311 328 346 355 387 425 397 417 348 370 409 392 406 297 319 323 349 349 282 374 395 402 396 343
165 176 190 167 179 155 182 201 219 247 263 284 324 331 305 306 328 342 365 347 386 339 411 357 361 424 429 411 319 267 248 233 228 231 293 296 279 252
223 196 203 192 186 174 160 195 209 235 267 295 313 336 344 320 330 360 400 430 443 399 347 344 354 380 370 309 232 145 192 165 181 169 168 155 137 173
211 206 181 177 190 205 187 200 235 262 270 284 290 296 288 302 326 332 318 326 363 386 373 315 265 263 241 253 219 106 55 98 95 98 119 128 117 122
195 186 184 185 201 212 218 234 256 258 258 264 260 277 288 294 323 324 349 352 347 316 272 236 193 135 121 103 110 78 92 97 139 151 163 176 184 163
165 157 183 195 224 253 256 264 275 266 276 249 260 278 293 286 287 280 263 242 223 207 178 117 76 66 76 56 58 82 117 137 135 127 132 180 155 138
148 156 174 216 247 274 280 253 250 263 255 270 264 230 210 203 156 101 61 47 54 72 87 100 107 117 125 124 142 148 153 153 161 159 145 160 175 155

GFSNE_con_3kmhel_240.txt.gz
Helicity
207 251 265 238 224 230 212 188 164 129 87 104 171 107 103 100 90 115 99 138 165 139 142 144 165 197 197 182 167 142 118 110 111 106 97 116 111 106
272 230 216 217 208 219 261 226 221 155 114 86 49 96 117 112 103 105 102 137 183 166 165 194 196 214 231 231 235 219 184 159 125 129 117 121 132 132
273 244 214 228 218 190 217 219 206 214 153 142 195 63 69 106 122 138 116 127 141 184 193 201 211 228 250 260 292 277 235 206 176 173 156 160 158 157
314 286 225 266 229 228 184 182 174 191 178 136 139 165 144 97 116 123 122 126 118 146 188 184 193 222 264 287 322 320 318 301 267 231 227 186 192 186
288 282 289 270 248 249 271 243 206 205 152 135 133 138 145 131 123 127 134 95 103 137 136 174 181 173 219 297 330 340 353 367 340 330 291 304 325 252
254 240 232 246 269 267 257 281 263 248 234 190 159 229 228 188 177 145 153 132 120 129 149 139 133 141 226 250 260 339 343 364 346 372 377 390 397 313
222 246 202 211 219 198 247 289 310 304 293 285 250 229 248 288 226 237 174 140 143 173 130 126 161 208 195 176 188 244 309 395 343 397 525 427 500 435
206 231 249 287 118 196 216 227 262 175 233 200 103 250 173 211 209 253 241 199 182 180 203 188 266 239 209 252 191 192 236 241 241 314 408 477 479 432
270 289 185 205 198 219 192 201 123 186 136 187 185 258 40 187 202 293 298 350 190 165 115 150 242 247 228 210 226 237 268 271 257 307 379 474 543 500
109 150 145 166 210 160 159 149 217 236 233 242 35 107 135 159 249 256 253 246 195 276 188 172 242 270 217 193 194 189 197 201 243 244 282 379 528 536
166 148 165 157 197 235 211 167 159 188 199 147 117 153 183 233 214 296 244 311 224 187 226 235 210 207 182 193 216 190 165 135 167 199 236 337 424 524
105 113 120 145 140 124 140 132 150 162 180 153 161 141 159 191 197 207 245 263 339 261 210 282 304 205 143 172 222 201 174 144 157 174 217 281 337 366
196 117 125 141 161 161 149 154 157 168 154 177 164 185 185 199 204 230 226 284 356 288 192 306 298 294 283 222 135 171 200 218 202 184 197 233 286 328
138 149 167 174 163 147 131 131 153 153 156 160 185 165 179 207 212 223 246 310 321 217 232 383 278 349 336 310 231 186 199 193 212 232 203 173 196 293
66 99 149 198 210 185 143 114 123 151 160 179 170 159 200 198 237 253 275 311 327 323 246 312 309 300 314 315 245 232 197 200 226 207 213 226 241 250
35 44 58 100 125 160 160 143 151 155 166 166 190 201 230 245 250 297 319 331 363 380 379 318 300 332 329 285 282 295 248 220 226 251 254 260 237 269
118 82 73 98 106 121 120 121 109 111 122 126 153 155 170 201 237 265 295 339 331 354 358 382 387 376 398 309 326 259 250 256 227 259 276 301 326 271
162 146 132 136 123 138 144 146 140 125 114 116 124 157 170 187 215 251 277 266 340 362 391 420 437 470 465 441 337 262 275 295 277 262 273 293 287 323
167 168 161 159 159 136 141 134 153 160 153 156 148 143 168 203 251 277 285 283 324 348 348 353 331 389 376 386 324 393 290 266 278 277 285 287 273 253
120 145 150 153 159 179 172 150 135 153 166 168 181 186 196 203 245 282 315 332 351 387 404 368 344 322 353 339 304 329 324 242 265 275 283 268 232 224
101 95 84 98 136 147 152 146 145 160 157 173 175 190 199 216 227 249 298 346 396 398 404 381 353 398 421 441 395 335 338 374 208 190 170 133 124 119
129 127 115 107 125 129 159 160 131 139 141 154 190 218 235 222 232 272 312 338 348 367 378 411 348 354 337 318 297 311 311 304 284 285 243 157 97 72
115 131 139 135 134 156 161 166 160 151 143 140 185 230 243 252 274 290 302 343 387 410 374 430 383 373 297 312 269 264 251 180 129 137 172 194 180 155